{"data":{"norad_id":59858,"epoch":"2026-05-25T04:51:18.739008Z","epoch_age_seconds":68315,"freshness":"FRESH","line1":"1 59858U 24098A   26145.20230022  .00002523  00000+0  10112-3 0  9996","line2":"2 59858  43.0031 198.4698 0001042 283.0185  77.0550 15.27594224113625","mean_motion":15.27594224,"eccentricity":0.0001042,"inclination_deg":43.0031,"raan_deg":198.4698,"arg_perigee_deg":283.0185,"mean_anomaly_deg":77.055,"bstar":0.00010112,"rev_number":11362,"period_min":94.265870960769,"perigee_km":482.29157344391,"apogee_km":483.72143575027,"semimajor_km":6861.1435045971,"source":"CELESTRAK","updated_at":"2026-05-25T13:38:19.090294Z"}}